[[{"header":{"parameterUnit":"m.s-1","parameterCategory":1,"la1":30.2991,"la2":30.254,"lo1":-89.0895,"lo2":-89.0444,"dy":0.0017,"dx":0.0017,"nx":28,"ny":28,"refTime":"2025-07-11T09:00:00:Z","depth":0,"parameterNumber":2,"parameterNumberName":"U-component_of_WINDS"},"data":[0,0,0,0,0,0,0,0,0,0,0,0,0,0,0,0,0,0,0,0,0,0,0,0,0,0,0,0,0,0,0,0,0,0,0,0,0,0,0,0,0,0,0,0,0,0,0,0,0,0,0,0,0,0,0,0,0,0,0.9529,0.9529,0,0.9598,0.9599,0.96,0.962,0.9619,0.9619,0.9619,0.9691,0.9693,0.9695,0,0,0,0,0,0,0,0,0,0,0,0,0,0.9415,0.9417,0.9528,0.9529,0.953,0.9598,0.9599,0.96,0.962,0.9619,0.9619,0.9619,0.969,0.9693,0.9696,0,0,0,0,0,0,0,0,0,0,0,0,0,0.9472,0.9417,0.9528,0.9548,0.9551,0.9598,0.9599,0.96,0.962,0.9619,0.9619,0.9618,0.9689,0.9693,0.9696,0.9728,0,0,0.9706,0.9708,0,0,0,0,0,0,0,0,0.9469,0.9476,0.9545,0.9547,0.955,0.96,0.9585,0.9643,0.962,0.9594,0.9619,0.9618,0.9661,0.9667,0.9681,0.9732,0.9735,0.9707,0.9709,0.971,0.9711,0,0,0,0,0,0,0,0.9465,0.9473,0.9556,0.9545,0.9549,0.9554,0.9562,0.9596,0.963,0.9596,0.9598,0.9606,0.9662,0.9678,0.9683,0.9736,0.9707,0.971,0.9712,0.9713,0.9818,0.9819,0,0,0,0,0,0,0.9457,0.947,0.9554,0.9558,0.9507,0.9557,0.9565,0.9584,0.9629,0.9636,0.9606,0.9606,0.9672,0.9679,0.9686,0.9727,0.971,0.9713,0.9715,0.9817,0.9818,0.9819,0,0,0,0,0,0,0.9455,0.9464,0.9551,0.9515,0.9526,0.956,0.9581,0.9586,0.9601,0.9637,0.9643,0.9615,0.9672,0.9681,0.9718,0.973,0.9715,0.9718,0.9817,0.9818,0.9819,0.981,0,0,0,0,0,0,0.9451,0.9463,0.9476,0.9515,0.9528,0.9581,0.9581,0.9588,0.9607,0.9608,0.9647,0.9653,0.9672,0.9713,0.9721,0.9734,0.9721,0.9816,0.9817,0.9818,0.981,0.9811,0.9812,0,0,0,0,0,0.9447,0.947,0.9476,0.9486,0.9544,0.9582,0.959,0.9611,0.9608,0.9621,0.9644,0.9652,0.9727,0.9716,0.9726,0.974,0.9815,0.9817,0.9818,0.9809,0.9811,0.9812,0,0,0,0,0,0,0.9431,0.9476,0.9483,0.9519,0.9547,0.9585,0.9602,0.9612,0.9641,0.9641,0.9666,0.9675,0.971,0.9729,0.9716,0.9775,0.9772,0.9775,0.9761,0.9763,0.9764,0.9759,0.9724,0,0,0,0,0,0.9432,0.9459,0.9497,0.9525,0.9539,0.9568,0.9586,0.96,0.9629,0.9641,0.9667,0.9696,0.9727,0.9746,0.9776,0.9813,0.9822,0.9828,0.9829,0.983,0.9833,0.9855,0.9858,0.9825,0.9825,0.9825,0,0,0.9434,0.9462,0.9477,0.9523,0.9546,0.9574,0.9578,0.9607,0.9629,0.9646,0.9682,0.9703,0.9737,0.9774,0.9792,0.9791,0.9844,0.9832,0.9832,0.9835,0.9857,0.986,0.9863,0.9826,0.9826,0.9825,0,0,0.9452,0.9475,0.9502,0.9525,0.956,0.958,0.9586,0.9624,0.9638,0.9675,0.9689,0.9716,0.9767,0.9791,0.981,0.9839,0.9848,0.9848,0.9854,0.9875,0.9878,0.988,0.9891,0.9895,0.9851,0.9851,0.9851,0,0.945,0.9492,0.9514,0.9544,0.9564,0.9581,0.9609,0.963,0.9673,0.9687,0.9686,0.9752,0.9776,0.982,0.9827,0.9841,0.985,0.9843,0.9876,0.9878,0.9881,0.9892,0.9895,0.985,0.985,0.985,0.9851,0,0.9488,0.9518,0.9535,0.9576,0.9599,0.9627,0.9654,0.9674,0.9687,0.9707,0.9745,0.9775,0.9811,0.9823,0.9835,0.9869,0.9868,0.9871,0.9868,0.9884,0.9894,0.9898,0.985,0.985,0.985,0.985,0,0,0.9497,0.9551,0.9557,0.9576,0.9617,0.9641,0.9671,0.9706,0.9723,0.9753,0.9779,0.9823,0.9826,0.9848,0.9863,0.9882,0.9904,0.9883,0.9884,0.9886,0.9944,0.9941,0.9945,0.991,0.9911,0.9912,0.9941,0,0.952,0.9573,0.9594,0.9638,0.9666,0.9683,0.9709,0.9738,0.9758,0.9785,0.9807,0.9838,0.984,0.9853,0.9873,0.9897,0.9916,0.9895,0.9935,0.9936,0.9925,0.995,0.9947,0.9973,0.9945,0.9946,0.9946,0,0.9553,0.9583,0.9629,0.9668,0.968,0.9703,0.9739,0.9764,0.9797,0.9811,0.9835,0.985,0.9883,0.9878,0.9924,0.991,0.9928,0.9942,0.9944,0.9948,0.9942,0.9955,0.9982,0.9986,0.9953,0.9952,0.9952,0,0.9555,0.9607,0.9642,0.9658,0.9704,0.9719,0.9739,0.9772,0.9792,0.9824,0.9837,0.9872,0.9891,0.9918,0.9942,0.9936,0.9986,0.9983,0.9998,0.9997,1.0007,1.0006,1.0037,1.0019,1.0019,1.0019,1.0019,0,0.9578,0.9606,0.9643,0.9664,0.9696,0.9722,0.9753,0.9774,0.9803,0.9829,0.9847,0.9871,0.9902,0.993,0.9949,0.9985,0.9993,1.0006,1.001,1.0004,1.0002,1.0015,1.0014,1.002,1.002,1.0019,1.0019,0,0.9585,0.9612,0.965,0.9691,0.9702,0.9724,0.9759,0.978,0.9802,0.9835,0.9844,0.9878,0.9912,0.9939,0.9984,0.9997,1.0035,1.004,1.0024,1.0026,1.004,1.0038,1.008,1.0087,1.0064,1.0064,1.0065,0,0.9598,0.962,0.9663,0.9682,0.9702,0.9732,0.9753,0.9779,0.9801,0.9841,0.9858,0.9894,0.9924,0.9979,1.0008,1.0043,1.0049,1.0061,1.0054,1.0047,1.0049,1.0047,1.005,1.0062,1.0062,1.0062,1.0062,0,0.9618,0.9631,0.966,0.9695,0.972,0.9749,0.9778,0.9793,0.9825,0.9848,0.9884,0.9907,0.9954,0.9989,1.0028,1.0049,1.0061,1.0064,1.007,1.0063,1.0053,1.0059,1.0026,1.0063,1.0063,1.0063,1.0063,1.0063,0.9629,0.9649,0.9683,0.9716,0.9741,0.9768,0.9791,0.9816,0.9846,0.9885,0.9899,0.9936,0.997,1.0023,1.0045,1.0074,1.0075,1.0083,1.0085,1.0086,1.0086,1.0048,1.0081,1.0082,1.0082,1.0082,1.0082,0,0.965,0.9673,0.9703,0.9744,0.977,0.978,0.9813,0.9834,0.9866,0.9897,0.9926,0.9968,1.0003,1.0035,1.0072,1.009,1.0097,1.0099,1.0098,1.0103,1.0083,1.0075,1.0093,1.0093,1.0093,1.0093,1.0093,1.0093,0.9664,0.97,0.9716,0.9765,0.9788,0.9824,0.9842,0.9868,0.9892,0.9938,0.9967,0.9988,1.002,1.0059,1.0092,1.0101,1.0114,1.0114,1.0124,1.0105,1.0104,1.0102,1.0095,1.0117,1.0117,1.0142,1.0142,1.0142]},{"header":{"parameterUnit":"m.s-1","parameterCategory":1,"la1":30.2991,"la2":30.254,"lo1":-89.0895,"lo2":-89.0444,"dy":0.0017,"dx":0.0017,"nx":28,"ny":28,"refTime":"2025-07-11T09:00:00:Z","depth":0,"parameterNumber":3,"parameterNumberName":"V-component_of_WINDS"},"data":[0,0,0,0,0,0,0,0,0,0,0,0,0,0,0,0,0,0,0,0,0,0,0,0,0,0,0,0,0,0,0,0,0,0,0,0,0,0,0,0,0,0,0,0,0,0,0,0,0,0,0,0,0,0,0,0,0,0,-1.2016,-1.2017,0,-1.2061,-1.2062,-1.2062,-1.2083,-1.2083,-1.2083,-1.2083,-1.2127,-1.2128,-1.2129,0,0,0,0,0,0,0,0,0,0,0,0,0,-1.1947,-1.1948,-1.2016,-1.2017,-1.2017,-1.2061,-1.2062,-1.2063,-1.2083,-1.2083,-1.2083,-1.2083,-1.2126,-1.2128,-1.2129,0,0,0,0,0,0,0,0,0,0,0,0,0,-1.1983,-1.1948,-1.2016,-1.2033,-1.2035,-1.2061,-1.2062,-1.2063,-1.2083,-1.2083,-1.2083,-1.2083,-1.2126,-1.2127,-1.2129,-1.2141,0,0,-1.2135,-1.2135,0,0,0,0,0,0,0,0,-1.1981,-1.1985,-1.203,-1.2032,-1.2034,-1.2067,-1.2053,-1.2089,-1.2083,-1.2065,-1.2083,-1.2083,-1.2106,-1.211,-1.2118,-1.2143,-1.2145,-1.2135,-1.2136,-1.2137,-1.2137,0,0,0,0,0,0,0,-1.1978,-1.1983,-1.2034,-1.203,-1.2033,-1.2038,-1.2043,-1.206,-1.2085,-1.2066,-1.2068,-1.2073,-1.2108,-1.2117,-1.2119,-1.2146,-1.2135,-1.2136,-1.2137,-1.2138,-1.2186,-1.2186,0,0,0,0,0,0,-1.1973,-1.1981,-1.2032,-1.2035,-1.2007,-1.2039,-1.2045,-1.2056,-1.2085,-1.209,-1.2073,-1.2074,-1.2114,-1.2117,-1.2121,-1.2139,-1.2137,-1.2138,-1.2139,-1.2185,-1.2186,-1.2186,0,0,0,0,0,0,-1.1972,-1.1978,-1.2031,-1.2009,-1.2016,-1.2041,-1.2053,-1.2057,-1.2066,-1.209,-1.2095,-1.2078,-1.2114,-1.2119,-1.2137,-1.214,-1.2139,-1.2141,-1.2185,-1.2185,-1.2186,-1.2173,0,0,0,0,0,0,-1.197,-1.1977,-1.1982,-1.2009,-1.2017,-1.2046,-1.2053,-1.2058,-1.2069,-1.2071,-1.2096,-1.21,-1.2114,-1.2134,-1.2139,-1.2143,-1.2142,-1.2185,-1.2185,-1.2186,-1.2173,-1.2173,-1.2173,0,0,0,0,0,-1.1967,-1.1975,-1.1982,-1.1988,-1.2024,-1.2046,-1.2051,-1.2067,-1.207,-1.2075,-1.2091,-1.2099,-1.214,-1.2136,-1.2141,-1.2146,-1.2185,-1.2185,-1.2186,-1.2173,-1.2173,-1.2173,0,0,0,0,0,0,-1.1946,-1.1979,-1.1987,-1.2004,-1.2022,-1.2049,-1.2056,-1.2066,-1.2083,-1.2084,-1.2103,-1.2109,-1.2126,-1.2138,-1.2133,-1.216,-1.2163,-1.2164,-1.2152,-1.2152,-1.2151,-1.2148,-1.2144,0,0,0,0,0,-1.1943,-1.1959,-1.1987,-1.1999,-1.2009,-1.2031,-1.2041,-1.2053,-1.2072,-1.208,-1.2097,-1.2115,-1.2132,-1.2142,-1.2159,-1.2175,-1.2182,-1.2182,-1.2181,-1.2181,-1.2182,-1.2193,-1.2194,-1.2187,-1.2187,-1.2187,0,0,-1.1938,-1.1958,-1.1966,-1.1996,-1.2011,-1.2028,-1.2037,-1.2053,-1.2065,-1.2082,-1.2101,-1.2114,-1.2136,-1.2154,-1.2162,-1.2164,-1.2185,-1.2181,-1.2181,-1.2182,-1.2194,-1.2194,-1.2195,-1.2187,-1.2187,-1.2187,0,0,-1.1936,-1.1953,-1.1966,-1.1983,-1.2007,-1.2022,-1.2025,-1.2052,-1.2062,-1.2082,-1.2096,-1.211,-1.2138,-1.2154,-1.2165,-1.2173,-1.2182,-1.2178,-1.2176,-1.2187,-1.2188,-1.2188,-1.2192,-1.2193,-1.2179,-1.2179,-1.2179,0,-1.1926,-1.1952,-1.1971,-1.1988,-1.2001,-1.2019,-1.2033,-1.2047,-1.2075,-1.2084,-1.2086,-1.2124,-1.2139,-1.2162,-1.2165,-1.2173,-1.2178,-1.2175,-1.2186,-1.2187,-1.2188,-1.2192,-1.2193,-1.2179,-1.2179,-1.2179,-1.2179,0,-1.1939,-1.1956,-1.1964,-1.1993,-1.2007,-1.2022,-1.2044,-1.2056,-1.2067,-1.2083,-1.2104,-1.2123,-1.2146,-1.2152,-1.2162,-1.2177,-1.2177,-1.2183,-1.2185,-1.2188,-1.2192,-1.2193,-1.2178,-1.2178,-1.2178,-1.2178,0,0,-1.1923,-1.1965,-1.1968,-1.1982,-1.2012,-1.2026,-1.2042,-1.2065,-1.2076,-1.2095,-1.211,-1.2135,-1.2141,-1.2154,-1.2167,-1.2176,-1.2183,-1.2181,-1.2181,-1.2181,-1.2202,-1.2199,-1.22,-1.219,-1.219,-1.219,-1.2201,0,-1.1926,-1.1957,-1.1977,-1.2,-1.2018,-1.2036,-1.2051,-1.2071,-1.2086,-1.2103,-1.212,-1.2138,-1.2144,-1.2152,-1.2163,-1.218,-1.2188,-1.218,-1.2204,-1.2204,-1.2198,-1.2202,-1.2197,-1.2206,-1.2203,-1.2203,-1.2203,0,-1.1933,-1.1955,-1.198,-1.2011,-1.2019,-1.2031,-1.2056,-1.2072,-1.2095,-1.2106,-1.2122,-1.2136,-1.2154,-1.2156,-1.2183,-1.2177,-1.2188,-1.2199,-1.2199,-1.2202,-1.2204,-1.2205,-1.2209,-1.2211,-1.2206,-1.2205,-1.2205,0,-1.1921,-1.1955,-1.1976,-1.1988,-1.2023,-1.2032,-1.2047,-1.2071,-1.2085,-1.2106,-1.2115,-1.2137,-1.215,-1.2167,-1.2186,-1.2186,-1.2212,-1.2215,-1.2221,-1.2221,-1.2225,-1.2224,-1.2232,-1.2232,-1.2232,-1.2232,-1.2232,0,-1.1922,-1.1937,-1.1971,-1.1984,-1.2002,-1.2025,-1.2042,-1.2059,-1.208,-1.2096,-1.2114,-1.2128,-1.2153,-1.2171,-1.2186,-1.2207,-1.2212,-1.2221,-1.2225,-1.222,-1.2219,-1.2227,-1.2227,-1.2232,-1.2232,-1.2232,-1.2232,0,-1.191,-1.1934,-1.1958,-1.1991,-1.1999,-1.2011,-1.2039,-1.2053,-1.207,-1.2091,-1.2097,-1.2124,-1.2146,-1.2168,-1.2197,-1.2207,-1.2228,-1.2233,-1.222,-1.2223,-1.2228,-1.2228,-1.2241,-1.2245,-1.2242,-1.2242,-1.2242,0,-1.1909,-1.1922,-1.1957,-1.1971,-1.1986,-1.2006,-1.2021,-1.2045,-1.206,-1.2089,-1.2099,-1.2123,-1.2144,-1.2179,-1.2201,-1.2224,-1.223,-1.2233,-1.2233,-1.2228,-1.2231,-1.223,-1.2232,-1.2232,-1.2232,-1.2232,-1.2232,0,-1.1906,-1.1918,-1.194,-1.1966,-1.1984,-1.2005,-1.2027,-1.2036,-1.2064,-1.208,-1.2105,-1.2121,-1.2152,-1.2176,-1.2203,-1.2218,-1.223,-1.2232,-1.2235,-1.223,-1.2222,-1.2228,-1.222,-1.2231,-1.2231,-1.2231,-1.2232,-1.2232,-1.1901,-1.1914,-1.1942,-1.1965,-1.1985,-1.2006,-1.2021,-1.2041,-1.2062,-1.2091,-1.2104,-1.2128,-1.2154,-1.2191,-1.2206,-1.2226,-1.2229,-1.2232,-1.2234,-1.2234,-1.2234,-1.222,-1.2231,-1.2231,-1.2231,-1.2231,-1.2231,0,-1.1899,-1.1919,-1.1941,-1.1972,-1.1992,-1.2003,-1.2029,-1.2044,-1.2066,-1.2089,-1.211,-1.2139,-1.2163,-1.2188,-1.2214,-1.2225,-1.2231,-1.2231,-1.223,-1.2234,-1.2229,-1.2225,-1.2226,-1.2226,-1.2226,-1.2226,-1.2226,-1.2226,-1.1901,-1.1924,-1.194,-1.1973,-1.1993,-1.2018,-1.2032,-1.2052,-1.2071,-1.2103,-1.2124,-1.2141,-1.2166,-1.2194,-1.2217,-1.2224,-1.2232,-1.2231,-1.2239,-1.2234,-1.2234,-1.2234,-1.223,-1.2232,-1.2232,-1.2242,-1.2242,-1.2242]}]]